| time (UTC) | temp F | wind direction | speed MPH | gust MPH | rain 1hr in | rain 24hr in | rain mn in | humidity % | barometer mb |
| 20260503231521 | 48 | 181 | 2.0 | 10.0 | 0.00 | 0.00 | 0.00 | 41 | 1018.7 |
| 20260503230016 | 48 | 127 | 4.0 | 9.0 | 0.00 | 0.00 | 0.00 | 40 | 1018.7 |
| 20260503224516 | 48 | 128 | 5.0 | 11.0 | 0.00 | 0.00 | 0.00 | 40 | 1018.6 |
| 20260503223015 | 49 | 289 | 4.0 | 15.0 | 0.00 | 0.00 | 0.00 | 39 | 1018.7 |
| 20260503221516 | 48 | 198 | 4.0 | 12.0 | 0.00 | 0.00 | 0.00 | 40 | 1018.6 |
| 20260503220026 | 48 | 359 | 5.0 | 11.0 | 0.00 | 0.00 | 0.00 | 41 | 1018.5 |
| 20260503214525 | 48 | 243 | 6.0 | 14.0 | 0.00 | 0.00 | 0.00 | 40 | 1018.5 |
| 20260503213027 | 48 | 179 | 4.0 | 14.0 | 0.00 | 0.00 | 0.00 | 41 | 1018.5 |
| 20260503211514 | 48 | 166 | 5.0 | 13.0 | 0.00 | 0.00 | 0.00 | 41 | 1018.5 |
| 20260503210016 | 48 | 234 | 7.0 | 14.0 | 0.00 | 0.00 | 0.00 | 40 | 1018.5 |
| 20260503204521 | 49 | 145 | 6.0 | 12.0 | 0.00 | 0.00 | 0.00 | 39 | 1018.5 |
| 20260503203012 | 48 | 195 | 2.0 | 10.0 | 0.00 | 0.00 | 0.00 | 40 | 1018.6 |
| 20260503201505 | 48 | 211 | 4.0 | 12.0 | 0.00 | 0.00 | 0.00 | 40 | 1018.5 |
| 20260503200002 | 47 | 193 | 5.0 | 9.0 | 0.00 | 0.00 | 0.00 | 42 | 1018.6 |
| 20260503194624 | 46 | 177 | 3.0 | 8.0 | 0.00 | 0.00 | 0.00 | 44 | 1018.7 |
| 20260503193101 | 46 | 169 | 2.0 | 7.0 | 0.00 | 0.00 | 0.00 | 45 | 1018.7 |
| 20260503191606 | 46 | 176 | 1.0 | 9.0 | 0.00 | 0.00 | 0.00 | 46 | 1018.8 |
| 20260503190058 | 45 | 206 | 0.0 | 7.0 | 0.00 | 0.00 | 0.00 | 47 | 1018.9 |
| 20260503184554 | 45 | 194 | 0.0 | 4.0 | 0.00 | 0.00 | 0.00 | 46 | 1018.7 |
| 20260503183057 | 44 | 182 | 0.0 | 5.0 | 0.00 | 0.00 | 0.00 | 49 | 1018.7 |
| 20260503181559 | 43 | 37 | 0.0 | 0.0 | 0.00 | 0.00 | 0.00 | 56 | 1018.8 |
| 20260503180050 | 42 | 37 | 0.0 | 2.0 | 0.00 | 0.00 | 0.00 | 57 | 1018.9 |
| 20260503174548 | 42 | 36 | 0.0 | 2.0 | 0.00 | 0.00 | 0.00 | 58 | 1018.8 |
| 20260503173041 | 41 | 37 | 0.0 | 0.0 | 0.00 | 0.00 | 0.00 | 62 | 1018.8 |
| 20260503171536 | 39 | 37 | 0.0 | 2.0 | 0.00 | 0.00 | 0.00 | 63 | 1018.8 |
| 20260503081528 | 38 | 226 | 6.0 | 10.0 | 0.00 | 0.00 | 0.00 | 54 | 1016.1 |
| 20260503071521 | 36 | 143 | 1.0 | 4.0 | 0.00 | 0.00 | 0.00 | 62 | 1015.6 |
| 20260503054518 | 41 | 228 | 0.0 | 5.0 | 0.00 | 0.00 | 0.00 | 53 | 1014.8 |
| 20260503053017 | 42 | 235 | 2.0 | 7.0 | 0.00 | 0.00 | 0.00 | 51 | 1014.6 |
| 20260503051510 | 42 | 202 | 3.0 | 11.0 | 0.00 | 0.00 | 0.00 | 50 | 1014.3 |
| 20260503050009 | 43 | 222 | 3.0 | 9.0 | 0.00 | 0.00 | 0.00 | 50 | 1014.3 |
| 20260503044507 | 43 | 245 | 4.0 | 13.0 | 0.00 | 0.00 | 0.00 | 50 | 1013.9 |
| 20260503043006 | 44 | 251 | 5.0 | 14.0 | 0.00 | 0.00 | 0.00 | 49 | 1013.8 |
| 20260503041504 | 44 | 254 | 4.0 | 11.0 | 0.00 | 0.00 | 0.00 | 48 | 1013.6 |
| 20260503040010 | 45 | 199 | 5.0 | 15.0 | 0.00 | 0.00 | 0.00 | 48 | 1013.3 |
| 20260503034503 | 45 | 295 | 5.0 | 13.0 | 0.00 | 0.00 | 0.00 | 47 | 1013.4 |
| 20260503033002 | 45 | 241 | 7.0 | 15.0 | 0.00 | 0.00 | 0.00 | 47 | 1013.3 |
| 20260503031600 | 46 | 239 | 5.0 | 12.0 | 0.00 | 0.00 | 0.00 | 46 | 1013.0 |
| 20260503030108 | 45 | 227 | 7.0 | 15.0 | 0.00 | 0.00 | 0.00 | 47 | 1012.7 |
| 20260503024602 | 46 | 276 | 7.0 | 16.0 | 0.00 | 0.00 | 0.00 | 45 | 1012.6 |
| 20260503023058 | 47 | 312 | 8.0 | 17.0 | 0.00 | 0.00 | 0.00 | 43 | 1012.7 |
| 20260503021604 | 47 | 270 | 5.0 | 14.0 | 0.00 | 0.00 | 0.00 | 44 | 1012.7 |
| 20260503020106 | 46 | 359 | 8.0 | 21.0 | 0.00 | 0.00 | 0.00 | 46 | 1012.4 |
| 20260503014555 | 46 | 359 | 12.0 | 21.0 | 0.00 | 0.00 | 0.00 | 44 | 1012.4 |
| 20260503013056 | 47 | 226 | 10.0 | 19.0 | 0.00 | 0.00 | 0.00 | 44 | 1012.3 |
| 20260503011603 | 46 | 226 | 9.0 | 21.0 | 0.00 | 0.00 | 0.00 | 45 | 1012.1 |
| 20260503010055 | 47 | 359 | 12.0 | 22.0 | 0.00 | 0.00 | 0.00 | 42 | 1012.0 |
| 20260503004551 | 47 | 270 | 9.0 | 19.0 | 0.00 | 0.00 | 0.00 | 40 | 1011.9 |
| 20260503003055 | 48 | 262 | 7.0 | 15.0 | 0.00 | 0.00 | 0.00 | 37 | 1011.5 |
| 20260503001556 | 48 | 300 | 7.0 | 12.0 | 0.00 | 0.00 | 0.00 | 36 | 1011.5 |
| 20260503000038 | 48 | 191 | 6.0 | 22.0 | 0.00 | 0.00 | 0.00 | 36 | 1011.1 |
| 20260502234546 | 50 | 247 | 9.0 | 18.0 | 0.00 | 0.00 | 0.00 | 33 | 1011.0 |
| 20260502233035 | 51 | 251 | 8.0 | 21.0 | 0.00 | 0.00 | 0.00 | 34 | 1010.8 |